SCP
0 0 0 0 0 0 0 0 0 0 0 0 0 0 0 0 0 0 0 -0 -0 -0 -0 -0 0 0 0 0 0 0 0 0 0 0 0 0 0 0 0 0 0 0 0
0 0 0 0 0 0 0 0 0 0 0 0 0 0 0 0 0 0 0 0 -0 0 0 0 0 0 0 0 0 0 0 0 0 0 0 0 0 0 0 0 0 0 0
0 0 0 0 0 0 0 0 0 0 0 0 0 0 0 0 0 0 0 0 0 0 0 0 0 0 0 0 0 0 0 0 0 0 0 0 0 0 0 0 0 0 0
0 0 0 0 0 0 0 0 0 0 0 0 0 0 0 0 0 0 0 0 0 0 0 0 0 0 0 0 0 0 0 0 0 0 0 0 0 0 0 0 0 0 0
0 0 0 0 0 0 0 0 0 0 0 0 0 0 0 0 0 0 0 0 0 0 0 0 0 0 0 0 0 0 0 0 0 0 0 0 0 0 0 0 0 0 0
0 0 0 0 0 0 0 0 0 0 0 0 0 0 0 0 0 0 0 0 0 0 0 0 0 0 0 0 0 0 0 0 0 0 0 0 0 0 0 0 0 0 0
0 0 0 0 0 0 0 0 0 0 0 0 0 0 0 0 0 0 0 0 0 0 0 0 0 0 0 0 0 0 0 0 0 0 0 0 0 0 0 0 0 0 0
0 0 0 0 0 0 0 0 0 0 0 0 0 0 0 0 0 0 0 0 0 0 0 0 0 0 0 0 0 0 0 0 0 0 0 0 0 0 0 0 0 0 0
0 0 0 0 0 0 0 0 0 0 0 0 0 0 0 0 0 0 0 0 0 0 0 0 0 0 0 0 0 0 0 0 0 0 0 0 0 0 0 0 0 0 0
0 0 0 0 0 0 0 0 0 0 0 0 0 0 0 0 0 0 0 0 0 0 0 0 0 0 0 0 0 0 0 0 0 0 0 0 0 0 0 0 0 0 0
0 0 0 0 0 0 0 0 0 0 0 0 0 0 0 0 0 0 0 0 0 0 0 0 0 0 0 0 0 0 0 0 0 0 0 0 0 0 0 0 0 0 0
0 0 0 0 0 0 0 0 0 0 0 0 0 0 0 0 0 0 0 0 0 0 0 0 0 0 0 0 0 0 0 0 0 0 0 0 -0 -0 -0 -0 0 0 0
0 0 0 0 0 0 0 0 0 0 0 0 0 0 0 0 0 0 0 0 0 0 0 0 0 0 0 0 0 0 0 0 0 0 0 0 0 0 0 0 0 0 0
0 0 0 0 0 0 0 0 0 0 0 0 0 0 0 0 0 0 0 0 0 0 0 0 0 0 0 0 0 0 0 0 0 0 0 0 0 0 0 0 0 0 0
0 0 0 0 0 0 0 0 0 0 0 0 0 0 0 0 0 0 0 0 0 0 0 0 0 0 0 0 0 0 0 0 0 0 0 0 0 0 0 0 0 0 0
0 0 0 0 0 0 0 0 0 0 0 0 0 0 0 0 0 0 0 0 0 0 0 0 0 0 0 0 0 0 0 0 0 0 0 0 0 0 0 0 0 0 0
0 0 0 0 0 0 0 0 0 0 0 0 0 0 0 0 0 0 0 0 0 0 0 0 0 0 0 0 0 0 0 0 0 0 0 0 0 0 0 0 0 0 0
0 0 0 0 0 0 0 0 0 0 0 0 0 0 0 0 0 0 0 0 0 0 0 0 0 0 0 0 0 0 0 0 0 0 0 0 0 0 0 0 0 0 0
0 0 0 0 0 0 0 0 0 0 0 0 0 0 0 0 0 0 0 0 0 0 0 0 0 0 0 0 0 0 0 0 0 0 0 0 0 0 0 0 0 0 0
0 0 0 0 0 0 0 0 0 0 0 0 0 0 0 0 0 0 0 0 0 0 0 0 0 0 0 0 0 0 0 0 0 0 0 0 0 0 0 0 0 0 0
0 0 0 0 0 0 0 0 0 0 0 0 0 0 0 0 0 0 0 0 0 0 0 0 0 0 0 0 0 0 0 0 0 0 0 0 0 0 0 0 0 0 0
0 0 0 0 0 0 0 0 0 0 0 0 0 0 0 0 0 0 0 0 0 0 0 0 0 0 0 0 0 0 0 0 0 0 0 0 0 0 0 0 0 0 0
0 0 0 0 0 0 0 0 0 0 0 0 0 0 0 0 0 0 0 0 0 0 0 0 0 0 0 0 0 0 0 0 0 0 0 0 0 0 0 0 0 0 0
0 0 0 0 0 0 0 0 0 0 0 0 0 0 0 0 0 0 0 0 0 0 0 0 0 0 0 0 0 0 0 0 0 0 0 0 0 0 0 0 0 0 0
0 0 0 0 0 0 0 0 0 0 0 0 0 0 0 0 0 0 0 0 0 0 0 0 0 0 0 0 0 0 0 0 0 0 0 0 0 0 0 0 0 0 0
0 0 0 0 0 0 0 0 0 0 0 0 0 0 0 0 0 0 0 0 0 0 0 0 0 0 0 0 0 0 0 0 0 0 0 0 0 0 0 0 0 0 0
Wind_Speed_500mb
28 27 23 21 19 14 6 8 4 4 3 1 4 7 10 14 17 20 24 25 26 29 33 45 46 48 43 41 39 44 47 46 37 34 22 24 27 24 22 22 27 30 27
35 33 29 28 27 19 13 12 8 8 6 5 4 7 11 16 21 26 31 32 34 35 36 38 44 48 49 50 50 50 50 52 50 47 40 39 35 35 34 31 25 25 32
39 40 38 41 31 23 18 15 13 12 10 9 9 11 15 21 24 26 28 30 31 31 31 32 31 32 37 47 47 46 47 48 49 47 45 45 45 45 42 37 36 40 40
49 42 39 43 33 26 21 18 19 16 15 16 13 16 19 21 23 23 23 24 26 28 29 31 32 32 31 35 41 44 46 48 49 49 52 52 51 50 48 47 46 44 46
45 53 46 40 35 28 28 25 24 17 24 22 19 22 23 20 18 18 18 21 26 27 28 30 29 28 30 32 34 37 42 46 48 51 53 56 58 58 58 57 55 55 54
53 55 50 52 45 37 33 29 24 27 24 23 30 29 24 17 13 11 14 18 21 25 29 30 31 33 35 37 40 43 46 50 53 57 60 62 64 66 66 65 65 64 64
52 46 46 46 39 40 35 33 35 33 37 37 34 30 24 16 9 9 13 17 22 27 28 29 31 32 33 35 39 44 48 51 54 59 62 65 67 69 70 69 68 68 65
50 55 59 55 44 46 40 41 39 45 45 42 31 22 21 14 9 3 9 15 20 24 26 29 31 33 36 40 42 44 48 53 58 64 69 73 76 78 78 78 73 68 67
49 47 57 51 49 43 42 40 39 37 44 42 35 18 14 13 18 9 2 11 18 20 23 26 29 32 37 40 44 48 53 56 61 65 70 75 80 82 84 83 81 73 71
55 58 51 49 47 46 45 45 42 36 32 33 35 27 21 14 14 13 9 4 12 16 21 24 28 33 38 42 45 47 51 57 62 68 75 81 85 88 89 88 84 76 75
56 53 51 50 50 50 49 46 44 40 33 28 29 29 23 17 14 13 13 6 5 12 15 19 24 30 35 39 44 47 51 56 62 70 76 83 88 91 92 92 90 77 74
60 57 54 53 55 55 51 47 43 39 35 31 28 24 18 16 14 11 12 8 1 6 9 17 22 30 35 40 43 43 47 53 61 68 75 82 86 90 94 95 82 78 79
65 60 60 61 59 55 51 46 42 36 32 29 23 17 13 8 6 5 4 3 2 5 9 17 22 30 35 39 40 42 46 51 56 64 72 77 81 86 89 93 96 88 82
64 64 66 63 59 53 48 43 38 34 30 24 19 15 10 7 3 3 3 5 6 9 15 19 24 31 35 36 38 41 43 47 53 62 67 72 76 80 86 90 92 84 81
68 72 72 66 60 55 48 41 36 33 29 23 18 14 9 3 2 6 8 8 11 10 20 20 29 31 31 30 33 37 42 48 53 58 62 68 75 80 85 86 85 78 78
74 79 76 69 63 56 49 44 38 34 27 22 17 11 6 3 5 8 10 13 14 17 16 26 28 32 29 32 36 42 47 52 54 58 62 70 74 78 85 88 86 80 79
81 82 78 72 65 58 51 43 35 29 25 20 15 10 7 6 7 10 13 17 19 23 28 33 32 34 33 35 41 47 53 57 60 61 66 72 72 77 83 90 91 91 86
85 84 79 73 65 57 48 40 32 27 22 17 13 12 11 10 10 12 16 20 26 30 34 39 40 40 42 43 48 53 58 61 65 65 67 74 73 79 84 91 93 88 84
88 85 80 74 66 56 47 39 31 24 20 14 14 15 14 13 14 16 20 24 30 36 39 44 49 50 52 52 57 60 65 67 70 71 70 75 75 82 86 89 90 88 84
92 87 80 73 65 56 48 42 35 29 16 19 22 20 19 18 19 23 26 30 35 40 44 49 55 57 59 61 65 70 74 72 76 76 77 84 79 86 88 86 86 87 85
93 87 81 74 65 58 52 44 36 23 24 31 26 27 25 24 26 29 34 35 40 45 48 54 59 61 63 67 68 72 78 81 82 78 84 93 83 91 92 88 88 87 80
93 85 78 71 66 59 52 44 34 31 30 34 35 32 32 32 33 35 40 40 45 50 52 57 61 65 67 70 69 72 76 77 82 78 90 98 88 93 93 90 90 86 74
90 85 79 73 67 61 56 41 38 41 39 42 41 40 41 38 39 41 44 47 51 55 58 62 67 68 73 72 73 71 68 73 81 86 85 102 89 93 96 93 89 79 76
91 86 80 75 69 63 58 45 56 40 46 49 46 48 47 46 45 48 52 56 59 61 60 62 68 69 70 69 64 57 68 75 84 87 79 91 86 92 99 100 85 85 84
86 85 80 77 71 65 53 61 57 48 51 53 51 54 54 54 51 54 62 67 69 72 67 67 68 68 66 61 47 65 70 72 86 90 81 63 84 96 99 102 89 91 84
83 82 80 75 69 56 71 68 56 54 53 56 56 62 58 59 57 59 65 71 79 79 76 75 72 69 66 64 62 60 60 70 70 81 48 66 85 81 78 101 97 92 90
Wind_Direction_500mb
238 227 216 210 200 184 230 284 290 272 205 143 61 55 50 43 47 59 65 70 67 64 64 59 58 59 58 53 50 45 41 37 23 10 342 318 315 314 320 336 344 341 354
240 227 227 218 206 198 210 227 246 220 197 155 132 85 65 73 79 79 77 73 71 70 67 65 60 58 55 51 49 43 38 36 31 24 10 1 347 341 326 307 312 313 319
241 231 228 234 206 206 221 229 245 214 192 154 139 106 95 92 90 84 78 72 67 60 56 51 45 42 41 47 46 40 34 29 22 12 6 357 351 347 346 339 314 297 295
233 232 231 220 227 213 228 226 230 205 183 170 144 122 113 107 93 80 67 54 45 40 33 34 29 27 21 25 28 30 25 17 7 4 358 353 349 346 341 332 329 327 320
234 228 230 218 214 219 232 219 223 206 182 165 150 134 122 112 96 76 55 40 32 26 23 23 20 18 17 14 11 8 8 3 359 355 353 350 348 344 338 336 331 327 321
233 231 217 222 233 223 225 214 202 187 191 182 158 142 128 115 97 71 46 32 23 19 17 15 12 12 12 13 8 5 2 359 356 353 351 348 345 343 340 336 334 329 326
216 221 229 204 204 231 221 207 197 197 182 172 163 148 140 134 122 70 39 23 14 12 8 6 8 7 7 4 1 2 358 355 353 350 349 346 343 340 338 334 332 329 333
235 208 201 221 232 220 200 199 204 187 180 175 175 166 160 168 173 78 18 8 6 5 1 4 5 4 2 1 2 358 356 354 353 351 349 347 345 342 339 336 336 334 331
214 223 222 221 215 205 200 195 189 196 186 182 186 193 174 188 181 193 298 352 354 356 5 5 5 4 2 0 357 357 356 354 353 352 351 349 347 344 341 337 333 333 330
220 213 214 209 204 197 194 186 184 192 200 202 198 209 213 196 177 173 189 338 350 353 360 0 2 2 360 358 358 355 355 355 354 353 352 349 346 343 340 337 334 332 330
212 208 203 202 199 191 188 188 188 190 193 201 198 192 184 185 192 187 186 205 301 346 358 358 359 358 354 353 355 355 356 357 356 354 351 348 344 341 338 336 333 331 326
206 202 202 199 193 189 189 189 190 193 196 194 192 192 197 196 193 192 185 196 152 352 355 359 358 352 351 351 353 354 356 356 354 353 350 348 345 342 339 335 332 328 324
205 200 196 191 189 189 190 191 193 194 193 194 192 195 194 192 192 195 196 198 315 323 337 342 346 347 346 350 350 351 352 352 351 348 350 349 345 341 336 334 330 326 323
214 202 193 191 191 192 194 194 194 194 194 193 194 190 186 180 194 267 292 318 313 317 326 333 339 340 340 343 345 343 342 344 347 349 347 345 341 337 335 334 329 325 322
211 199 194 193 195 196 196 195 196 197 192 192 189 185 185 191 271 288 291 301 315 320 320 330 333 330 329 330 330 328 333 341 341 340 341 340 337 338 336 332 329 325 322
206 198 195 195 196 196 195 196 195 192 190 188 185 188 190 221 266 280 289 293 300 304 305 311 316 314 318 320 320 323 330 333 331 332 336 336 337 337 334 331 329 324 320
204 200 199 196 197 197 196 195 192 192 189 193 190 197 218 229 249 272 286 295 300 302 301 301 310 312 313 312 316 320 323 322 325 330 332 330 334 335 333 330 329 328 324
204 201 200 198 198 198 198 194 195 194 195 202 206 215 225 234 246 268 285 293 296 295 297 304 312 311 311 315 314 312 314 315 319 325 329 326 331 330 330 330 329 329 324
206 202 201 200 198 198 196 193 194 200 204 216 233 231 234 242 258 272 286 289 290 294 301 304 311 314 311 312 309 309 307 311 316 323 325 323 328 328 329 328 328 328 326
207 205 203 201 198 197 196 196 195 201 206 263 241 241 247 252 265 275 284 289 290 293 302 308 309 311 309 311 310 308 305 312 315 319 322 319 330 325 326 328 329 328 328
208 208 205 201 199 198 198 198 199 200 250 245 250 246 252 261 269 275 279 283 289 295 301 304 305 307 309 309 308 310 310 310 313 317 321 318 327 322 325 327 330 333 328
210 208 206 205 201 201 200 200 201 235 239 254 252 254 257 263 269 274 278 283 287 291 297 299 301 303 307 305 307 308 309 309 315 315 318 313 324 320 322 326 332 333 329
211 210 209 208 207 205 203 203 219 239 235 253 252 257 259 264 268 274 279 282 284 288 295 298 299 302 303 305 305 304 303 306 310 313 316 310 320 317 320 324 330 331 333
213 212 211 211 210 208 205 221 228 231 238 251 254 261 262 264 268 273 277 279 281 283 287 290 291 295 296 297 302 300 296 305 308 310 313 310 320 317 319 320 329 332 335
215 216 215 214 212 210 217 231 234 229 243 252 259 267 266 268 271 275 278 281 282 284 286 288 290 293 296 300 286 276 293 303 312 312 313 310 318 316 317 319 330 329 331
221 219 219 218 216 213 234 244 242 238 244 251 259 266 269 272 274 275 277 281 283 288 290 290 291 291 293 291 286 284 292 305 308 307 304 309 313 318 320 317 322 326 332
Wind_Speed_850mb
28 27 23 21 19 14 6 8 4 4 3 1 4 7 10 14 17 20 24 25 26 29 33 45 46 48 43 41 39 44 47 46 37 34 22 24 27 24 22 22 27 30 27
35 33 29 28 27 19 13 12 8 8 6 5 4 7 11 16 21 26 31 32 34 35 36 38 44 48 49 50 50 50 50 52 50 47 40 39 35 35 34 31 25 25 32
39 40 38 41 31 23 18 15 13 12 10 9 9 11 15 21 24 26 28 30 31 31 31 32 31 32 37 47 47 46 47 48 49 47 45 45 45 45 42 37 36 40 40
49 42 39 43 33 26 21 18 19 16 15 16 13 16 19 21 23 23 23 24 26 28 29 31 32 32 31 35 41 44 46 48 49 49 52 52 51 50 48 47 46 44 46
45 53 46 40 35 28 28 25 24 17 24 22 19 22 23 20 18 18 18 21 26 27 28 30 29 28 30 32 34 37 42 46 48 51 53 56 58 58 58 57 55 55 54
53 55 50 52 45 37 33 29 24 27 24 23 30 29 24 17 13 11 14 18 21 25 29 30 31 33 35 37 40 43 46 50 53 57 60 62 64 66 66 65 65 64 64
52 46 46 46 39 40 35 33 35 33 37 37 34 30 24 16 9 9 13 17 22 27 28 29 31 32 33 35 39 44 48 51 54 59 62 65 67 69 70 69 68 68 65
50 55 59 55 44 46 40 41 39 45 45 42 31 22 21 14 9 3 9 15 20 24 26 29 31 33 36 40 42 44 48 53 58 64 69 73 76 78 78 78 73 68 67
49 47 57 51 49 43 42 40 39 37 44 42 35 18 14 13 18 9 2 11 18 20 23 26 29 32 37 40 44 48 53 56 61 65 70 75 80 82 84 83 81 73 71
55 58 51 49 47 46 45 45 42 36 32 33 35 27 21 14 14 13 9 4 12 16 21 24 28 33 38 42 45 47 51 57 62 68 75 81 85 88 89 88 84 76 75
56 53 51 50 50 50 49 46 44 40 33 28 29 29 23 17 14 13 13 6 5 12 15 19 24 30 35 39 44 47 51 56 62 70 76 83 88 91 92 92 90 77 74
60 57 54 53 55 55 51 47 43 39 35 31 28 24 18 16 14 11 12 8 1 6 9 17 22 30 35 40 43 43 47 53 61 68 75 82 86 90 94 95 82 78 79
65 60 60 61 59 55 51 46 42 36 32 29 23 17 13 8 6 5 4 3 2 5 9 17 22 30 35 39 40 42 46 51 56 64 72 77 81 86 89 93 96 88 82
64 64 66 63 59 53 48 43 38 34 30 24 19 15 10 7 3 3 3 5 6 9 15 19 24 31 35 36 38 41 43 47 53 62 67 72 76 80 86 90 92 84 81
68 72 72 66 60 55 48 41 36 33 29 23 18 14 9 3 2 6 8 8 11 10 20 20 29 31 31 30 33 37 42 48 53 58 62 68 75 80 85 86 85 78 78
74 79 76 69 63 56 49 44 38 34 27 22 17 11 6 3 5 8 10 13 14 17 16 26 28 32 29 32 36 42 47 52 54 58 62 70 74 78 85 88 86 80 79
81 82 78 72 65 58 51 43 35 29 25 20 15 10 7 6 7 10 13 17 19 23 28 33 32 34 33 35 41 47 53 57 60 61 66 72 72 77 83 90 91 91 86
85 84 79 73 65 57 48 40 32 27 22 17 13 12 11 10 10 12 16 20 26 30 34 39 40 40 42 43 48 53 58 61 65 65 67 74 73 79 84 91 93 88 84
88 85 80 74 66 56 47 39 31 24 20 14 14 15 14 13 14 16 20 24 30 36 39 44 49 50 52 52 57 60 65 67 70 71 70 75 75 82 86 89 90 88 84
92 87 80 73 65 56 48 42 35 29 16 19 22 20 19 18 19 23 26 30 35 40 44 49 55 57 59 61 65 70 74 72 76 76 77 84 79 86 88 86 86 87 85
93 87 81 74 65 58 52 44 36 23 24 31 26 27 25 24 26 29 34 35 40 45 48 54 59 61 63 67 68 72 78 81 82 78 84 93 83 91 92 88 88 87 80
93 85 78 71 66 59 52 44 34 31 30 34 35 32 32 32 33 35 40 40 45 50 52 57 61 65 67 70 69 72 76 77 82 78 90 98 88 93 93 90 90 86 74
90 85 79 73 67 61 56 41 38 41 39 42 41 40 41 38 39 41 44 47 51 55 58 62 67 68 73 72 73 71 68 73 81 86 85 102 89 93 96 93 89 79 76
91 86 80 75 69 63 58 45 56 40 46 49 46 48 47 46 45 48 52 56 59 61 60 62 68 69 70 69 64 57 68 75 84 87 79 91 86 92 99 100 85 85 84
86 85 80 77 71 65 53 61 57 48 51 53 51 54 54 54 51 54 62 67 69 72 67 67 68 68 66 61 47 65 70 72 86 90 81 63 84 96 99 102 89 91 84
83 82 80 75 69 56 71 68 56 54 53 56 56 62 58 59 57 59 65 71 79 79 76 75 72 69 66 64 62 60 60 70 70 81 48 66 85 81 78 101 97 92 90
Wind_Direction_850mb
238 227 216 210 200 184 230 284 290 272 205 143 61 55 50 43 47 59 65 70 67 64 64 59 58 59 58 53 50 45 41 37 23 10 342 318 315 314 320 336 344 341 354
240 227 227 218 206 198 210 227 246 220 197 155 132 85 65 73 79 79 77 73 71 70 67 65 60 58 55 51 49 43 38 36 31 24 10 1 347 341 326 307 312 313 319
241 231 228 234 206 206 221 229 245 214 192 154 139 106 95 92 90 84 78 72 67 60 56 51 45 42 41 47 46 40 34 29 22 12 6 357 351 347 346 339 314 297 295
233 232 231 220 227 213 228 226 230 205 183 170 144 122 113 107 93 80 67 54 45 40 33 34 29 27 21 25 28 30 25 17 7 4 358 353 349 346 341 332 329 327 320
234 228 230 218 214 219 232 219 223 206 182 165 150 134 122 112 96 76 55 40 32 26 23 23 20 18 17 14 11 8 8 3 359 355 353 350 348 344 338 336 331 327 321
233 231 217 222 233 223 225 214 202 187 191 182 158 142 128 115 97 71 46 32 23 19 17 15 12 12 12 13 8 5 2 359 356 353 351 348 345 343 340 336 334 329 326
216 221 229 204 204 231 221 207 197 197 182 172 163 148 140 134 122 70 39 23 14 12 8 6 8 7 7 4 1 2 358 355 353 350 349 346 343 340 338 334 332 329 333
235 208 201 221 232 220 200 199 204 187 180 175 175 166 160 168 173 78 18 8 6 5 1 4 5 4 2 1 2 358 356 354 353 351 349 347 345 342 339 336 336 334 331
214 223 222 221 215 205 200 195 189 196 186 182 186 193 174 188 181 193 298 352 354 356 5 5 5 4 2 0 357 357 356 354 353 352 351 349 347 344 341 337 333 333 330
220 213 214 209 204 197 194 186 184 192 200 202 198 209 213 196 177 173 189 338 350 353 360 0 2 2 360 358 358 355 355 355 354 353 352 349 346 343 340 337 334 332 330
212 208 203 202 199 191 188 188 188 190 193 201 198 192 184 185 192 187 186 205 301 346 358 358 359 358 354 353 355 355 356 357 356 354 351 348 344 341 338 336 333 331 326
206 202 202 199 193 189 189 189 190 193 196 194 192 192 197 196 193 192 185 196 152 352 355 359 358 352 351 351 353 354 356 356 354 353 350 348 345 342 339 335 332 328 324
205 200 196 191 189 189 190 191 193 194 193 194 192 195 194 192 192 195 196 198 315 323 337 342 346 347 346 350 350 351 352 352 351 348 350 349 345 341 336 334 330 326 323
214 202 193 191 191 192 194 194 194 194 194 193 194 190 186 180 194 267 292 318 313 317 326 333 339 340 340 343 345 343 342 344 347 349 347 345 341 337 335 334 329 325 322
211 199 194 193 195 196 196 195 196 197 192 192 189 185 185 191 271 288 291 301 315 320 320 330 333 330 329 330 330 328 333 341 341 340 341 340 337 338 336 332 329 325 322
206 198 195 195 196 196 195 196 195 192 190 188 185 188 190 221 266 280 289 293 300 304 305 311 316 314 318 320 320 323 330 333 331 332 336 336 337 337 334 331 329 324 320
204 200 199 196 197 197 196 195 192 192 189 193 190 197 218 229 249 272 286 295 300 302 301 301 310 312 313 312 316 320 323 322 325 330 332 330 334 335 333 330 329 328 324
204 201 200 198 198 198 198 194 195 194 195 202 206 215 225 234 246 268 285 293 296 295 297 304 312 311 311 315 314 312 314 315 319 325 329 326 331 330 330 330 329 329 324
206 202 201 200 198 198 196 193 194 200 204 216 233 231 234 242 258 272 286 289 290 294 301 304 311 314 311 312 309 309 307 311 316 323 325 323 328 328 329 328 328 328 326
207 205 203 201 198 197 196 196 195 201 206 263 241 241 247 252 265 275 284 289 290 293 302 308 309 311 309 311 310 308 305 312 315 319 322 319 330 325 326 328 329 328 328
208 208 205 201 199 198 198 198 199 200 250 245 250 246 252 261 269 275 279 283 289 295 301 304 305 307 309 309 308 310 310 310 313 317 321 318 327 322 325 327 330 333 328
210 208 206 205 201 201 200 200 201 235 239 254 252 254 257 263 269 274 278 283 287 291 297 299 301 303 307 305 307 308 309 309 315 315 318 313 324 320 322 326 332 333 329
211 210 209 208 207 205 203 203 219 239 235 253 252 257 259 264 268 274 279 282 284 288 295 298 299 302 303 305 305 304 303 306 310 313 316 310 320 317 320 324 330 331 333
213 212 211 211 210 208 205 221 228 231 238 251 254 261 262 264 268 273 277 279 281 283 287 290 291 295 296 297 302 300 296 305 308 310 313 310 320 317 319 320 329 332 335
215 216 215 214 212 210 217 231 234 229 243 252 259 267 266 268 271 275 278 281 282 284 286 288 290 293 296 300 286 276 293 303 312 312 313 310 318 316 317 319 330 329 331
221 219 219 218 216 213 234 244 242 238 244 251 259 266 269 272 274 275 277 281 283 288 290 290 291 291 293 291 286 284 292 305 308 307 304 309 313 318 320 317 322 326 332